Moline, IL
on Tuesday, February 18, 2014

Tuesday
Previous Day Next Day
Daily Summary
 ActualAverageRecord
Temperature
Mean Temperature °F 28°F  
Max Temperature 49°F 37°F 63°F (1913)
Min Temperature 11°F 19°F -14°F (1936)
Degree Days
Heating Degree Days 35 37  
Month to date heating degree days 974 715  
Since 1 July heating degree days 5241 4449  
Cooling Degree Days 0 0  
Month to date cooling degree days 0 0  
Year to date cooling degree days 0 0  
Moisture
Dew Point 24°F   
Average Humidity 67    
Maximum Humidity 92    
Minimum Humidity 42    
Precipitation
Precipitation 0.00 in 0.06 in 0.97 in (2000)
Month to date precipitation 1.53 0.90  
Year to date precipitation 2.70 2.39  
Snow
Snow 0.00 in 0.30 in in ()
Month to date snowfall 21.8 4.8  
Since 1 July snowfall 54.3 24.7  
Snow Depth 10.00 in   
Wind
Wind Speed 9 mph   
Max Wind Speed 24 mph   
Max Gust Speed 32 mph   
Visibility 10 miles   
Events     

Key: T is trace of precipitation, MM is missing value
Source: NWS Daily Summary
Time(CST)TemperatureDew PointHumidity Pressure Visibility Wind DirectionWind SpeedGust SpeedPrecipitationEvents Conditions
12:52 AM 24.1°F 19.9°F 84% 29.94 in 10.0 miles West 5.8 mph - N/A   Clear
1:52 AM 17.1°F 16.0°F 96% 29.95 in 10.0 miles SSW 3.5 mph - N/A   Clear
2:52 AM 17.1°F 14.0°F 88% 29.95 in 10.0 miles Calm Calm - N/A   Clear
3:52 AM 16.0°F 14.0°F 92% 29.93 in 3.0 miles Calm Calm - N/A   Clear
4:52 AM 12.0°F 9.0°F 88% 29.91 in 9.0 miles East 3.5 mph - N/A   Clear
5:52 AM 19.0°F 16.0°F 88% 29.89 in 10.0 miles East 4.6 mph - N/A   Clear
6:52 AM 21.9°F 18.0°F 85% 29.86 in 10.0 miles ESE 3.5 mph - N/A   Clear
7:52 AM 33.1°F 23.0°F 66% 29.83 in 10.0 miles South 4.6 mph - N/A   Clear
8:52 AM 39.9°F 24.1°F 53% 29.81 in 10.0 miles SSW 8.1 mph - N/A   Clear
9:52 AM 41.0°F 25.0°F 53% 29.78 in 10.0 miles SSW 11.5 mph 19.6 mph N/A   Clear
10:52 AM 45.0°F 26.1°F 48% 29.72 in 10.0 miles South 19.6 mph 27.6 mph N/A   Clear
11:52 AM 46.9°F 26.1°F 44% 29.67 in 10.0 miles South 18.4 mph 26.5 mph N/A   Clear
12:52 PM 45.0°F 26.1°F 48% 29.67 in 10.0 miles SSW 19.6 mph 26.5 mph N/A   Clear
1:52 PM 48.0°F 26.1°F 42% 29.65 in 10.0 miles SW 19.6 mph 32.2 mph N/A   Clear
2:52 PM 48.0°F 26.1°F 42% 29.63 in 10.0 miles SSW 15.0 mph 31.1 mph N/A   Clear
3:52 PM 46.9°F 27.0°F 46% 29.65 in 10.0 miles SW 13.8 mph 20.7 mph N/A   Clear
4:52 PM 46.0°F 28.0°F 50% 29.66 in 10.0 miles WSW 8.1 mph - N/A   Clear
5:52 PM 44.1°F 28.0°F 53% 29.67 in 10.0 miles West 5.8 mph - N/A   Clear
6:52 PM 42.1°F 28.9°F 60% 29.68 in 10.0 miles WSW 5.8 mph - N/A   Clear
7:52 PM 41.0°F 28.9°F 62% 29.69 in 10.0 miles West 4.6 mph - N/A   Clear
8:52 PM 37.0°F 28.0°F 70% 29.70 in 10.0 miles Calm Calm - N/A   Clear
9:52 PM 42.1°F 30.0°F 62% 29.71 in 10.0 miles WNW 13.8 mph 19.6 mph N/A   Clear
10:52 PM 37.9°F 28.9°F 70% 29.73 in 10.0 miles WNW 18.4 mph 28.8 mph N/A   Clear
11:52 PM 37.0°F 28.0°F 70% 29.74 in 10.0 miles WNW 11.5 mph - N/A   Clear
Astronomy
Sunrise:06:52 AM (CST) Moon Rise:09:36 PM (CST)2/18
Sunset:05:39 PM (CST) Moon Set:08:22 AM (CST)2/18
Moon Phase
Feb. 18 Feb. 22 Mar. 01 Mar. 08 Mar. 16

Copyright © 2014 The Weather Underground, Inc.















  Today is Monday, Nov. 17, the 321st day of 2014. There are 44 days left in the year.

1864 -- 150 years ago: The ferry landing has been moved a little downstream because of the increase of sandbars above and opposite the old landing place.
1889 -- 125 years ago: Ben Eden purchased the Union Meat Market at 207 20th St.
1914 -- 100 years ago: Washington dispatches declared the bad effects of war upon trade had ended, a restoration of credit balance with Europe relieving the situation.
1939 -- 75 years ago: The maintenance foreman on the Iowa Illinois Memorial Bridge between Moline and Bettendorf lost his life when he slipped and fell into the Mississippi River.
1964 -- 50 years ago: The Black Hawk College Board of Education last night formally expressed appreciation for a proposed gift of 44 acres of land for a building site but could not take any other action until after a Nov. 24 stockholders meeting of the donor company.
1989 -- 25 years ago: A Rock Island County committee has approved a jail inmate phone service that could bring the county an additional $30,000 to $40,000 a year.